Wind_Speed
13 14 15 15 15 14 13 11 9 7 5 3 1 1 3 4 5 5 5 5 6 8 8 9 10 10 11 11 11 11 11 10 9 10 11 12 12 13 13 14 14 15 15
14 14 15 15 15 15 15 13 10 9 6 4 3 2 2 3 4 4 4 5 6 7 7 8 9 10 10 10 11 12 11 11 11 10 11 11 12 13 13 14 15 16 17
14 14 15 15 16 16 16 15 13 11 8 6 4 3 3 3 3 4 4 4 6 6 7 7 7 8 9 10 10 11 12 11 11 11 11 12 12 12 12 12 14 17 17
14 15 15 16 16 17 16 15 14 13 10 8 6 5 4 3 3 3 3 4 5 5 6 6 6 7 8 8 9 10 10 10 11 11 11 11 10 10 10 11 14 17 17
14 15 15 16 16 17 17 16 14 13 12 10 8 7 6 5 4 4 3 3 4 5 5 5 5 6 6 7 9 9 10 10 10 10 10 11 10 9 10 11 14 16 17
14 14 15 16 16 17 17 16 15 14 13 11 10 8 7 6 6 4 3 3 3 4 4 4 4 5 6 7 8 8 8 9 9 9 9 10 10 10 10 12 14 15 16
14 15 15 16 16 17 17 17 16 15 13 12 11 9 8 7 6 5 4 3 3 2 3 3 3 4 5 6 7 7 7 8 8 9 9 9 9 9 10 12 14 16 16
14 14 15 16 16 17 17 17 16 15 14 13 11 10 9 9 7 6 5 4 3 2 2 2 2 3 3 4 5 6 7 8 8 8 10 10 10 10 10 12 14 15 17
13 14 15 15 16 16 16 16 16 15 14 13 12 11 9 9 8 7 5 4 4 3 2 2 1 1 2 3 4 4 6 8 8 9 10 10 10 11 12 13 14 15 16
12 13 14 14 15 16 16 16 16 15 14 12 11 11 10 9 8 8 7 6 4 3 3 1 0 1 2 3 4 5 6 7 8 9 10 11 11 12 13 14 15 15 16
11 12 13 14 14 15 16 16 16 15 14 13 12 11 10 9 8 8 8 7 6 4 3 2 1 1 2 3 4 5 5 7 8 9 10 11 12 13 14 15 16 17 18
11 12 13 13 14 14 15 15 16 15 14 14 13 11 11 10 8 8 7 7 6 5 3 3 2 2 3 4 5 5 6 7 8 9 10 11 12 13 14 16 17 18 19
10 11 12 12 13 13 14 14 15 14 14 13 12 11 10 10 9 8 7 7 6 6 5 4 3 4 5 5 6 6 7 8 9 10 11 11 12 14 15 16 17 19 20
9 10 11 11 12 13 13 13 13 13 13 12 12 11 10 10 9 9 8 8 7 6 6 5 5 5 6 7 8 8 8 9 10 11 12 13 13 14 15 16 17 18 19
8 9 10 11 11 12 12 12 12 12 12 12 11 11 10 9 9 9 8 8 8 7 7 7 7 7 7 8 9 9 10 11 11 12 13 14 14 16 17 17 18 19 21
7 8 10 11 11 11 12 12 12 12 11 11 11 11 10 10 10 9 9 8 8 8 8 8 8 8 9 10 10 11 11 12 13 13 14 15 16 17 18 19 19 20 22
7 8 9 10 11 11 12 11 11 11 11 11 11 11 11 11 11 11 10 10 9 10 10 10 10 11 12 12 12 13 13 14 14 15 16 17 18 19 20 21 21 22 23
7 8 9 10 11 12 12 11 11 12 12 12 12 12 12 13 13 13 12 12 12 12 13 13 14 14 15 15 16 16 16 17 17 18 19 19 20 21 22 23 24 25 26
8 9 10 11 11 12 12 12 12 12 12 13 13 13 14 14 14 14 14 14 15 15 16 16 17 17 18 18 19 19 20 20 21 21 22 22 23 23 24 25 26 27 28
10 10 11 12 12 12 13 13 13 14 14 15 15 16 16 16 16 16 16 17 17 18 18 19 19 20 20 21 21 22 23 23 24 24 25 25 26 26 27 28 29 29 30
12 12 13 13 13 13 14 15 15 16 17 18 18 18 18 18 18 19 19 20 20 21 21 22 22 23 23 24 24 25 25 26 27 28 28 28 29 30 30 31 32 32 32
14 14 15 15 15 15 16 17 18 18 19 20 20 20 21 21 21 21 22 23 23 23 24 24 25 25 26 27 27 28 29 29 30 30 31 32 32 33 33 34 34 35 35
16 16 16 17 17 18 18 19 20 21 21 22 22 23 23 23 24 24 25 25 26 26 26 27 28 28 29 30 31 31 32 33 34 35 35 36 36 37 37 38 38 39 40
17 18 18 19 19 20 20 21 22 23 24 24 25 25 26 26 26 27 27 28 28 28 29 30 30 32 32 33 34 35 36 36 37 39 40 40 41 42 42 44 44 44 44
19 20 20 21 21 22 23 23 25 26 27 27 27 28 28 29 29 30 30 30 31 31 32 32 33 34 35 37 38 39 40 41 41 43 45 46 46 47 47 48 49 49 49
21 22 23 23 23 24 25 26 28 29 29 29 30 30 31 32 32 32 32 32 33 33 34 35 36 37 38 40 41 43 44 45 46 47 49 50 51 52 51 51 52 53 53
Wind_Direction
22 22 19 18 18 16 15 13 11 10 9 7 354 208 198 202 206 207 210 211 211 206 209 213 214 215 215 216 215 214 215 216 214 210 210 211 214 218 221 222 222 217 209
23 22 21 22 22 21 22 22 20 22 26 32 49 86 148 180 191 196 201 201 200 203 209 211 214 217 219 220 219 219 220 217 213 212 217 219 221 224 227 229 226 219 211
24 23 24 25 25 25 25 27 30 33 38 43 55 74 107 141 164 175 185 190 190 197 206 211 214 217 221 222 222 221 223 222 219 218 223 222 224 227 230 229 221 212 209
27 27 27 28 30 30 30 32 35 38 41 48 57 69 84 109 133 153 171 183 186 193 203 210 216 219 224 227 231 229 228 226 224 223 224 221 223 224 223 219 213 209 209
31 31 30 31 33 33 33 34 37 41 45 52 59 67 76 90 101 118 141 166 179 187 199 212 217 220 230 234 235 236 239 234 229 227 227 226 224 220 217 214 210 209 209
34 33 33 34 35 34 34 36 40 44 47 53 58 63 70 77 85 98 111 135 161 180 196 209 216 222 232 234 235 233 230 232 236 233 234 231 226 219 217 213 210 209 209
34 34 35 35 35 35 36 39 42 45 48 51 53 58 62 67 75 81 89 100 119 150 189 195 204 222 231 235 238 237 229 225 232 234 237 234 231 222 220 218 215 213 214
34 34 35 36 36 37 38 39 40 43 46 49 50 53 56 62 67 73 81 89 94 105 147 162 191 219 232 239 245 241 229 225 232 238 238 235 235 233 230 227 223 222 223
34 34 36 36 36 37 37 38 39 41 43 45 47 51 55 59 60 66 75 79 76 74 110 134 164 202 233 248 246 239 235 232 232 238 243 243 243 240 237 236 235 234 229
33 33 33 33 33 33 35 36 37 37 40 42 44 48 52 57 60 62 64 67 68 70 94 105 103 285 269 268 261 250 251 242 238 243 248 252 253 250 243 239 236 236 236
30 28 29 30 30 31 33 33 34 35 38 40 42 46 48 50 54 58 58 59 62 64 72 68 19 318 304 299 293 272 265 261 256 250 249 254 256 255 250 245 243 244 245
26 26 26 26 27 28 30 31 31 34 36 39 42 46 47 47 51 52 51 48 48 50 47 40 17 338 322 319 313 294 283 279 271 263 258 257 259 259 257 251 248 248 248
22 22 23 24 25 25 26 28 29 32 35 37 40 42 43 42 42 41 41 35 28 27 24 9 348 328 321 324 319 310 297 291 288 279 271 269 263 259 258 255 254 254 252
17 19 19 20 21 22 24 26 25 27 30 33 35 37 37 35 32 31 28 25 19 14 9 1 346 334 323 320 317 310 302 295 292 288 282 277 271 268 263 260 260 259 257
10 13 16 16 16 17 18 19 19 21 23 26 28 29 28 24 20 18 16 13 9 5 358 352 348 338 329 325 320 314 305 298 295 291 286 283 279 274 270 267 265 263 259
359 5 8 8 7 7 8 10 12 15 18 20 21 19 15 11 8 6 0 356 352 347 343 337 333 328 323 319 315 312 308 301 297 294 290 285 282 281 278 274 271 266 263
346 352 356 358 360 359 359 1 4 7 8 8 6 4 2 357 353 349 344 339 334 331 329 325 321 318 316 313 310 307 305 300 296 293 291 288 285 281 278 277 275 272 268
331 338 342 344 348 351 352 353 354 357 357 354 352 349 346 344 341 338 334 328 324 320 316 314 313 311 309 306 305 304 303 300 297 294 292 289 286 283 281 278 275 274 271
318 325 329 332 335 340 343 344 344 344 344 342 341 338 335 333 331 328 324 321 318 315 312 311 309 308 305 303 302 302 302 300 298 294 291 289 287 285 283 280 278 276 274
308 316 320 323 327 330 333 335 334 333 332 332 332 330 327 324 321 319 316 315 313 310 309 308 308 307 305 303 302 300 299 299 298 296 293 291 289 286 285 283 280 277 274
301 308 312 314 316 319 322 325 324 323 323 323 323 323 321 320 318 315 313 312 309 307 305 304 305 305 303 302 300 299 298 298 296 295 294 292 290 288 287 286 283 280 276
295 301 304 307 309 311 314 316 317 316 317 318 319 318 317 316 314 312 311 309 307 304 302 302 302 302 301 300 299 298 297 296 295 293 293 293 291 288 287 285 284 283 279
291 295 299 302 304 305 308 311 312 312 313 314 315 314 313 312 311 309 308 307 305 304 302 301 301 301 300 299 298 297 296 295 294 292 291 291 290 288 286 284 283 282 281
289 292 295 298 300 301 303 306 309 310 310 311 312 311 310 308 307 307 306 305 303 302 300 301 301 300 300 299 299 298 297 296 294 293 292 291 290 288 286 285 283 281 280
288 291 293 295 297 299 301 303 305 307 308 308 309 308 307 306 305 305 304 302 301 300 300 301 300 300 299 298 298 298 297 296 295 294 293 292 291 289 287 286 284 282 279
287 289 291 293 295 297 299 302 303 304 305 305 306 306 306 305 304 303 302 301 300 299 299 299 299 298 298 298 298 298 298 297 296 295 294 293 292 290 288 286 284 282 280
Height
5871 5868 5866 5863 5860 5857 5855 5852 5850 5849 5848 5848 5848 5849 5850 5851 5853 5854 5856 5858 5860 5861 5863 5865 5866 5868 5870 5872 5874 5876 5878 5878 5879 5881 5883 5885 5887 5888 5890 5891 5892 5895 5898
5871 5869 5866 5864 5861 5858 5855 5853 5850 5849 5848 5848 5848 5848 5849 5851 5852 5854 5855 5857 5859 5861 5862 5864 5866 5868 5870 5872 5874 5875 5877 5878 5879 5880 5882 5884 5885 5886 5887 5887 5887 5889 5894
5872 5870 5867 5865 5862 5859 5856 5853 5851 5850 5849 5848 5848 5849 5849 5851 5852 5854 5855 5857 5858 5860 5862 5863 5865 5867 5869 5871 5873 5874 5876 5878 5879 5880 5881 5883 5884 5884 5884 5882 5882 5886 5892
5873 5870 5868 5866 5863 5860 5858 5855 5853 5851 5850 5849 5849 5849 5850 5851 5852 5854 5855 5857 5858 5860 5861 5863 5864 5866 5868 5870 5872 5873 5875 5876 5878 5880 5880 5881 5883 5883 5882 5881 5882 5886 5892
5874 5872 5870 5867 5865 5862 5859 5857 5855 5853 5852 5851 5851 5851 5851 5852 5853 5854 5855 5857 5858 5859 5861 5862 5864 5866 5867 5869 5870 5872 5873 5875 5877 5878 5880 5881 5882 5882 5883 5882 5884 5888 5892
5876 5874 5871 5869 5867 5864 5862 5859 5857 5855 5854 5853 5852 5852 5852 5853 5853 5854 5856 5857 5858 5859 5861 5862 5864 5865 5867 5868 5869 5870 5870 5872 5875 5877 5879 5880 5881 5882 5884 5884 5885 5888 5892
5878 5876 5874 5871 5869 5866 5864 5861 5859 5857 5856 5855 5854 5854 5854 5854 5854 5855 5856 5857 5858 5860 5861 5862 5863 5865 5866 5868 5868 5868 5868 5870 5873 5876 5878 5880 5881 5882 5883 5885 5886 5888 5891
5880 5878 5876 5873 5871 5869 5866 5864 5862 5860 5858 5857 5856 5856 5855 5856 5856 5856 5857 5858 5859 5860 5861 5862 5863 5865 5866 5867 5868 5868 5868 5870 5873 5876 5878 5879 5880 5881 5883 5884 5886 5888 5890
5882 5880 5877 5875 5873 5871 5869 5866 5864 5862 5861 5859 5858 5858 5857 5857 5857 5858 5858 5859 5860 5861 5862 5863 5864 5865 5866 5867 5868 5869 5870 5871 5873 5875 5877 5878 5880 5881 5882 5884 5885 5887 5888
5883 5882 5880 5877 5875 5873 5871 5868 5866 5864 5862 5861 5860 5859 5859 5859 5859 5860 5860 5860 5861 5861 5862 5863 5864 5865 5866 5867 5868 5869 5870 5871 5872 5874 5875 5877 5878 5879 5881 5882 5883 5885 5887
5885 5883 5881 5879 5877 5875 5873 5870 5868 5866 5864 5862 5861 5861 5861 5861 5861 5861 5861 5862 5862 5862 5863 5864 5865 5865 5866 5867 5868 5869 5869 5870 5871 5872 5874 5875 5876 5877 5878 5879 5881 5883 5884
5886 5885 5883 5881 5879 5877 5875 5872 5870 5867 5866 5864 5863 5863 5862 5862 5862 5863 5863 5863 5863 5863 5864 5865 5865 5865 5866 5867 5867 5868 5869 5869 5870 5871 5872 5873 5874 5875 5876 5877 5878 5880 5881
5887 5886 5884 5882 5880 5878 5876 5874 5872 5869 5868 5866 5865 5864 5864 5864 5864 5864 5864 5864 5864 5864 5865 5865 5865 5865 5866 5866 5867 5867 5867 5868 5868 5869 5870 5870 5871 5872 5873 5874 5875 5876 5878
5888 5886 5885 5883 5881 5880 5877 5875 5873 5871 5869 5868 5867 5866 5866 5866 5865 5865 5865 5865 5865 5865 5865 5865 5865 5865 5865 5865 5865 5866 5866 5866 5866 5867 5867 5868 5868 5869 5870 5871 5871 5872 5873
5888 5887 5885 5884 5882 5881 5879 5877 5875 5873 5871 5870 5869 5868 5867 5867 5866 5866 5866 5865 5865 5865 5865 5864 5864 5864 5864 5864 5864 5864 5864 5864 5864 5864 5864 5865 5865 5865 5866 5867 5867 5868 5869
5888 5887 5886 5884 5883 5881 5879 5878 5876 5874 5872 5871 5870 5869 5868 5867 5867 5866 5866 5865 5864 5864 5864 5863 5863 5863 5862 5862 5862 5862 5861 5861 5861 5861 5861 5861 5862 5862 5862 5862 5863 5863 5864
5888 5887 5886 5885 5883 5881 5880 5878 5876 5874 5873 5872 5870 5869 5868 5867 5866 5865 5865 5864 5863 5863 5862 5862 5861 5861 5860 5860 5859 5859 5859 5858 5858 5858 5857 5857 5857 5857 5857 5857 5857 5858 5858
5887 5886 5885 5884 5883 5881 5879 5878 5876 5875 5873 5872 5870 5869 5868 5866 5865 5864 5863 5862 5861 5860 5860 5859 5859 5858 5857 5856 5856 5855 5855 5854 5854 5853 5853 5852 5852 5851 5851 5851 5851 5851 5851
5886 5885 5884 5883 5881 5880 5878 5877 5876 5874 5872 5871 5869 5868 5866 5864 5863 5862 5860 5859 5858 5857 5856 5856 5855 5854 5853 5852 5851 5851 5850 5849 5848 5847 5847 5846 5845 5845 5844 5844 5844 5844 5844
5884 5884 5882 5881 5880 5878 5877 5875 5874 5872 5871 5869 5867 5865 5863 5862 5860 5858 5857 5856 5854 5853 5852 5851 5850 5849 5848 5847 5846 5845 5844 5843 5842 5841 5840 5839 5838 5837 5836 5836 5835 5835 5834
5882 5881 5880 5879 5878 5876 5875 5873 5872 5870 5868 5866 5864 5862 5860 5858 5856 5854 5853 5851 5850 5848 5847 5846 5845 5844 5842 5841 5840 5839 5837 5836 5835 5833 5832 5831 5830 5829 5827 5826 5825 5824 5824
5879 5878 5877 5876 5874 5873 5872 5870 5868 5867 5865 5862 5860 5858 5856 5853 5851 5849 5848 5846 5844 5843 5841 5840 5839 5837 5835 5834 5832 5831 5829 5828 5826 5825 5823 5822 5820 5819 5818 5816 5815 5814 5813
5875 5874 5873 5872 5871 5869 5868 5866 5864 5862 5860 5858 5855 5853 5851 5848 5846 5844 5842 5840 5837 5835 5834 5833 5831 5829 5827 5826 5824 5822 5820 5818 5816 5814 5813 5812 5810 5808 5807 5805 5803 5802 5801
5871 5870 5869 5867 5866 5865 5863 5861 5859 5857 5855 5852 5850 5847 5845 5842 5840 5837 5835 5833 5831 5828 5827 5825 5823 5821 5818 5816 5814 5812 5810 5808 5805 5802 5800 5799 5797 5795 5793 5791 5789 5788 5787
5866 5865 5864 5862 5861 5859 5858 5856 5854 5852 5849 5846 5843 5841 5838 5835 5833 5830 5828 5825 5823 5821 5819 5816 5814 5811 5808 5806 5803 5800 5798 5795 5793 5790 5786 5784 5782 5780 5778 5776 5773 5771 5770
5860 5859 5858 5857 5855 5854 5852 5850 5847 5845 5842 5840 5837 5834 5830 5827 5825 5822 5820 5817 5815 5812 5810 5807 5804 5801 5798 5795 5791 5788 5785 5782 5779 5776 5772 5768 5765 5762 5762 5760 5756 5753 5751